Location: Newark
(26.7031°N, 81.8844°W)
Time: 03:24:59
(UTC+00:00)

Envisat - Visible Passes

Search period start: 29 January 2020 00:00
Search period end: 08 February 2020 00:00
Orbit: 764 x 766 km, 98.1° (Epoch: 28 January)

Date Brightness Start Highest point End Pass type
(mag) Time Alt. Az. Time Alt. Az. Time Alt. Az.
30 Jan 4.4 11:33:47 10° NNE 11:38:37 43° E 11:43:24 10° S visible
31 Jan 5.5 00:20:11 10° SSW 00:24:15 24° W 00:28:20 10° NW visible
31 Jan 6.1 10:58:27 10° NE 11:01:42 17° E 11:04:56 10° SE visible
31 Jan 3.6 23:42:23 10° S 23:47:24 63° W 23:52:26 10° NNW visible
02 Feb 6.3 00:47:53 10° WSW 00:49:52 12° W 00:51:51 10° WNW visible
02 Feb 5.0 11:22:44 10° NE 11:27:17 33° E 11:31:49 10° SSE visible
03 Feb 5.0 00:08:26 10° SSW 00:12:55 32° W 00:17:25 10° NW visible
03 Feb 6.3 10:48:11 10° ENE 10:50:20 13° E 10:52:29 10° ESE visible
03 Feb 3.1 23:31:03 10° S 23:36:06 84° WSW 23:41:12 10° NNW visible
05 Feb 6.1 00:35:21 10° SW 00:38:30 17° W 00:41:40 10° WNW visible
05 Feb 5.5 11:11:50 10° NE 11:15:58 25° E 11:20:05 10° SSE visible
05 Feb 4.4 23:56:49 10° S 00:01:36 42° W 00:06:24 10° NNW visible
07 Feb 4.2 11:36:36 10° NNE 11:41:30 48° E 11:46:23 10° S visible
